User: anonymous   Login
Location: Maiden
(35.5760°N, 81.2120°W)
Time: 07:20:48
(UTC-05:00)
Language:

Cosmos 2151 - Orbit

View from above orbital plane
View from above orbital plane
View from above satellite
View from above satellite

Ground track
Ground track

The orbit data is extracted from the following two-line orbital elements,

1 21422U 91042A   14353.18559381  .00002455  00000-0  24737-3 0   952
2 21422 082.5009 032.8436 0016238 096.1817 264.1253 14.90669227272713
Epoch (UTC): 19 December 2014 04:27:15
Eccentricity: 0.0016238
inclination: 82.5009°
perigee height: 584 km
apogee height: 607 km
right ascension of ascending node: 32.8436°
argument of perigee: 96.1817°
revolutions per day: 14.90669227
mean anomaly at epoch: 264.1253°
orbit number at epoch: 27271

The dashed part of the orbit path shows where the satellite is in the earth's shadow,  

DLR